Regional Weather Roundup
Issued by NWS

Home | Current Version | Previous Version | Graphics & Text | Print | Product List | Glossary On
Versions: 1 2 3 4 5 6 7 8 9 10 11 12 13 14 15 16 17 18 19 20 21 22 23 24 25 26 27 28 29 30 31 32 33 34 35 36 37 38 39 40 41 42 43 44 45 46 47 48 49 50
000
ASUS45 KSLC 051310
RWRUT

UTAH REGIONAL WEATHER ROUNDUP
NATIONAL WEATHER SERVICE SALT LAKE CITY UT
700 AM MDT SAT SEP 05 2015

UTZ001>011-023>025-051400-

NORTHERN UTAH

CITY           SKY/WX    TMP DP  RH WIND       PRES   REMARKS
BRIGHAM CITY   MOCLDY    61  34  36 N15       29.85R
HILL AFB       PTCLDY    69  42  37 S22       29.86R
LOGAN          PTCLDY    53  41  63 N7        29.87R
OGDEN          CLOUDY    70  42  36 SW14      29.85R
PROVO AIRPORT  PTCLDY    63  39  42 SE9       29.92S
SALT LAKE CITY PTCLDY    73  42  32 S23G32    29.84S
VERNAL         CLEAR     52  48  86 W5        30.02S
WENDOVER       PTCLDY    63  27  25 CALM      29.88R
HEBER CITY     MOCLDY    64  36  34 S3        29.96R
WEST JORDAN    CLEAR     68  43  40 SE16G22   29.89S

$$

UTZ012>022-026-027-051400-

SOUTHERN/CENTRAL UTAH

CITY           SKY/WX    TMP DP  RH WIND       PRES   REMARKS
BLANDING       MOCLDY    57  54  91 NE6       30.21R
BRYCE CANYON   MOCLDY    53  46  77 SE10      30.17S
CEDAR CITY     CLEAR     63  47  55 S10G18    30.02R
DELTA          CLEAR     61  41  48 S10       29.94R
HANKSVILLE     CLEAR     66  50  55 E6        30.01R
MILFORD        PTCLDY    63  40  42 S15       29.95R
MOAB/CYNLANDS  CLEAR     62  52  69 SE10      30.00S
PRICE          CLEAR     56  46  69 E9        30.06R
ST GEORGE      MOSUNNY   73  50  43 SE8       29.91R
KANAB          CLEAR     54  52  94 CALM      30.10S

$$

REGIONAL REPORTS     COLORADO/ARIZONA

CITY           SKY/WX    TMP DP  RH WIND       PRES   REMARKS
CRAIG, CO      CLOUDY    52  47  83 CALM      30.11R
GRAND JUNCTION PTCLDY    59  52  77 SE23      30.07R
RIFLE          PTCLDY    56  53  90 SW6       30.14R
MONTROSE       MOCLDY    53  51  93 CALM      30.17R
CORTEZ         MOCLDY    55  54  96 CALM      30.16R
PAGE, AZ       CLEAR     67  52  58 S6        30.00R
GRAND CANYON   MOCLDY    49  47  93 CALM      30.18R
KINGMAN        CLEAR     65  55  70 E5        29.96R
FLAGSTAFF      CLOUDY    54  54 100 W3        30.21R

$$

REGIONAL REPORTS    NEVADA/IDAHO/WYOMING

CITY           SKY/WX    TMP DP  RH WIND       PRES   REMARKS
LAS VEGAS, NV  PTCLDY    75  36  24 S8        29.81R
ELY            CLEAR     59  19  21 S20G26    29.96R
ELKO           PTCLDY    44  30  57 SW5       29.98R
POCATELLO, ID  PTCLDY    49  36  61 SW13      29.95R
BURLEY         CLOUDY    49  37  63 W9        29.95R
EVANSTON, WY   PTCLDY    54  38  54 S15       30.01S
ROCK SPRINGS   CLEAR     54  44  69 S20       30.03S
KEMMERER       CLOUDY    54  34  47 S7        30.03S

$$



USA.gov is the U.S. government's official web portal to all federal, state and local government web resources and services.